Location: Goettingen
(51.5300°N, 9.9433°E)
Time: 13:56:16
(UTC+02:00)

X-37B - Visible Passes

Search period start: 28 September 2021 00:00
Search period end: 08 October 2021 00:00
Orbit: 381 x 393 km, 45.0° (Epoch: 29 August)

Date Brightness Start Highest point End Pass type
(mag) Time Alt. Az. Time Alt. Az. Time Alt. Az.
28 Sep 2.1 05:57:54 19° SW 05:59:12 25° S 06:01:52 10° SE visible
29 Sep 2.7 05:02:12 19° SE 05:02:12 19° SE 05:03:38 10° ESE visible
29 Sep 2.4 06:34:40 10° WSW 06:37:05 20° SSW 06:39:29 10° SE visible
30 Sep 2.1 05:38:49 23° S 05:38:53 23° S 05:41:28 10° SE visible
01 Oct 3.6 04:43:12 11° SE 04:43:12 11° SE 04:43:20 10° SE visible
01 Oct 2.6 06:15:30 13° SW 06:16:42 16° SSW 06:18:43 10° SSE visible
02 Oct 2.9 05:19:57 15° SSE 05:19:57 15° SSE 05:20:57 10° SE visible
03 Oct 3.0 05:56:49 11° SSW 05:56:49 11° SSW 05:57:27 10° S visible
